Wind_Speed
10 11 10 12 14 15 17 19 21 23 23 24 24 26 25 24 24 24 28 30 30 29
10 10 10 11 13 14 16 19 21 22 24 24 26 26 26 23 25 25 26 29 29 28
9 10 11 11 13 14 16 19 21 23 23 24 26 27 26 24 25 27 26 27 29 28
11 11 11 11 13 14 16 18 20 22 24 25 28 28 26 25 26 27 29 29 29 29
11 11 11 12 14 15 16 18 20 21 24 26 29 28 27 26 25 26 28 29 29 30
11 11 12 13 13 15 16 18 19 21 23 26 29 29 26 24 25 25 26 27 27 30
10 11 12 12 12 14 15 17 19 20 22 26 27 30 27 24 24 25 26 27 27 30
9 9 10 11 12 12 13 14 17 19 20 26 27 32 28 25 24 26 26 30 28 29
9 10 10 11 12 12 12 13 14 19 19 22 28 31 26 23 24 25 27 31 34 33
9 10 12 12 12 12 13 14 15 18 20 20 31 33 28 21 23 23 27 30 35 33
10 12 11 12 13 12 13 14 14 17 20 20 27 33 32 25 21 22 24 26 33 35
11 11 11 12 12 12 12 13 14 16 18 21 23 31 33 27 22 24 23 25 28 36
10 10 10 11 11 11 11 12 12 13 16 17 21 27 30 29 24 23 23 23 25 30
8 9 9 9 10 10 10 11 12 12 13 16 18 22 26 28 23 21 20 21 24 27
Wind_Direction
1 357 354 350 347 344 340 341 343 345 344 342 341 339 337 336 337 333 328 321 310 301
357 355 355 353 350 347 344 346 347 349 347 347 346 344 342 341 340 340 334 330 331 326
356 359 358 356 355 354 351 352 354 354 351 351 351 349 348 347 345 345 341 340 337 338
1 2 1 1 0 358 356 358 360 358 355 355 356 353 353 354 353 351 345 345 343 344
5 3 4 6 5 4 4 4 3 2 1 359 359 356 360 359 358 356 353 349 349 349
4 5 7 7 6 7 10 10 9 7 6 3 2 360 2 2 2 2 357 356 354 358
8 9 10 8 9 13 13 12 11 11 9 7 6 4 3 3 6 6 3 0 1 3
14 15 14 14 15 19 17 17 16 14 12 11 12 6 3 7 9 9 6 6 3 7
20 19 21 22 20 21 21 23 23 19 13 16 13 7 7 7 11 13 9 8 5 7
25 28 28 26 24 25 25 25 25 23 19 21 15 12 11 11 18 15 15 13 10 7
38 37 32 31 30 29 28 29 29 27 25 21 15 14 14 18 19 19 19 18 17 14
42 40 37 36 33 31 33 32 32 30 26 23 17 16 15 19 18 18 18 17 19 17
48 44 42 36 32 33 33 33 30 30 28 23 19 15 17 20 17 15 13 13 12 13
49 45 39 37 34 28 30 31 28 25 23 21 17 14 16 17 19 11 8 10 7 6
Height
830 829 827 825 823 820 819 813 808 802 798 794 788 781 774 767 761 756 753 746 739 732
832 830 827 824 823 820 818 813 808 802 798 793 787 780 774 766 761 756 751 745 737 730
832 829 827 824 823 820 817 813 808 803 799 794 787 782 775 767 761 754 750 744 736 728
832 829 827 825 823 820 817 813 808 804 800 794 788 783 776 767 761 754 749 743 735 728
831 829 827 824 822 820 817 813 810 805 801 795 790 786 777 769 764 757 752 745 738 729
831 829 827 824 823 821 818 814 811 808 803 797 793 788 780 774 768 761 757 750 743 734
832 830 827 826 824 821 818 816 814 810 806 801 797 791 783 777 770 765 760 754 747 738
832 830 828 826 824 822 820 818 816 812 809 805 799 793 787 781 774 768 764 758 751 743
832 830 828 826 824 822 821 819 816 814 811 807 802 796 790 784 778 772 767 759 751 746
833 830 828 826 825 823 822 820 818 816 813 810 804 798 791 786 781 776 771 764 758 752
833 831 830 828 827 825 823 822 820 818 816 812 807 801 793 788 784 779 775 771 765 756
834 833 832 831 830 828 827 825 823 821 818 815 811 805 797 791 787 782 779 774 769 764
837 836 835 834 833 831 829 828 826 823 821 819 815 809 803 797 792 788 783 779 775 770
839 839 838 836 835 833 831 830 828 826 824 821 818 814 808 803 798 794 790 785 780 774